"startDT [UTC]","vpos","CH4 [ppm]","stdev(CH4) [ppm]","CO2 [ppm]","stdev(CO2) [ppm]","H2O [ppm]","stdev(H2O)","p_LGR [torr]","T_LGR [C]","mt1_LGR [us]","mt2_LGR [us]","T_ECpre [C]","T_EC1 [C]","T_EC2 [C]","p_inlet [hPa]","p_in [hPa]","p_out [hPa]","T_inlet [C]","RH_inlet [%]","dwpt_inlet [C]","T_vent [C]","RH_vent [%]","dwpt_vent [C]","flow_vent [l min-1]","flow_inlet [l min-1]","dwpt_sample [C]","T_room [C]"
2012-04-19 00:00:00,0.0,1.9056,0.0011,402.50,0.32,95.6,42.6,138.12,28.20,24.61,36.32,0.04,-272.74,-272.74,-54,557,-935,22.8,3.2,-23.8,22.8,3.4,-23.3,5.73,2.45,-26.6,27.5
2012-04-19 00:01:00,0.0,1.9056,0.0009,402.53,0.34,96.5,37.4,138.12,28.21,24.61,36.32,0.04,-272.73,-272.74,-54,557,-935,22.8,3.2,-23.7,22.9,3.3,-23.3,5.73,2.41,-26.6,27.5
2012-04-19 00:02:00,0.0,1.9058,0.0012,402.55,0.33,104.4,36.6,138.12,28.22,24.61,36.32,0.04,-272.74,-272.74,-53,555,-936,22.9,3.3,-23.6,22.9,3.4,-23.2,5.73,2.31,-26.5,27.6
2012-04-19 00:03:00,0.0,1.9062,0.0010,402.38,0.32,115.4,45.3,138.11,28.23,24.61,36.33,0.04,-272.74,-272.74,-55,558,-935,22.9,3.4,-23.3,22.9,3.5,-23.0,5.73,2.47,-26.4,27.7
2012-04-19 00:04:00,0.0,1.9059,0.0010,402.63,0.35,120.5,36.7,138.11,28.25,24.62,36.32,0.04,-272.73,-272.74,-54,557,-935,22.9,3.4,-23.3,22.9,3.5,-22.9,5.73,2.37,-26.4,27.7
2012-04-19 00:05:00,0.0,1.9064,0.0009,402.50,0.31,128.0,38.0,138.11,28.26,24.62,36.32,0.04,-272.73,-272.74,-54,558,-935,22.9,3.4,-23.3,23.0,3.5,-22.9,5.73,2.32,-26.3,27.8
2012-04-19 00:06:00,0.0,1.9065,0.0011,402.61,0.31,122.4,36.1,138.11,28.28,24.62,36.32,0.04,-272.73,-272.74,-54,558,-935,23.0,3.4,-23.2,23.0,3.5,-22.8,5.73,2.47,-26.3,27.8
2012-04-19 00:07:00,0.0,1.9071,0.0010,402.54,0.36,129.8,38.9,138.11,28.29,24.61,36.33,0.04,-272.73,-272.74,-53,558,-935,23.0,3.4,-23.2,23.0,3.5,-22.8,5.73,2.37,-26.2,27.8
2012-04-19 00:08:00,0.0,1.9074,0.0009,402.59,0.38,122.0,39.5,138.11,28.31,24.61,36.32,0.04,-272.74,-272.73,-54,558,-935,23.0,3.4,-23.2,23.1,3.5,-22.8,5.73,2.32,-26.2,27.9
2012-04-19 00:09:00,0.0,1.9074,0.0011,402.56,0.30,142.1,39.7,138.10,28.32,24.62,36.32,0.04,-272.74,-272.74,-54,558,-935,23.1,3.3,-23.3,23.1,3.5,-22.8,5.73,2.46,-26.1,27.9
2012-04-19 00:10:00,0.0,1.9076,0.0012,402.45,0.31,130.7,33.4,138.10,28.34,24.61,36.33,0.04,-272.74,-272.74,-53,558,-935,23.1,3.3,-23.2,23.1,3.4,-22.8,5.73,2.39,-26.1,27.9
2012-04-19 00:11:00,0.0,1.9074,0.0012,402.56,0.32,139.0,42.1,138.10,28.35,24.62,36.33,0.04,-272.74,-272.73,-54,559,-936,23.1,3.3,-23.2,23.2,3.4,-22.8,5.73,2.33,-26.0,27.3
2012-04-19 00:12:00,0.0,1.9071,0.0009,402.51,0.39,135.1,43.4,138.11,28.36,24.62,36.33,0.04,-272.73,-272.74,-54,559,-936,23.1,3.3,-23.2,23.1,3.5,-22.8,5.73,2.40,-26.1,27.0
2012-04-19 00:13:00,0.0,1.9072,0.0012,402.68,0.34,122.0,38.5,138.11,28.36,24.62,36.32,0.04,-272.74,-272.74,-54,559,-936,23.1,3.4,-23.2,23.1,3.5,-22.8,5.73,2.48,-26.2,26.6
2012-04-19 00:14:00,0.0,1.9074,0.0010,402.73,0.34,116.3,38.9,138.12,28.36,24.61,36.32,0.04,-272.74,-272.74,-54,559,-936,23.1,3.4,-23.2,23.1,3.5,-22.8,5.73,2.38,-26.4,26.5
2012-04-19 00:15:00,0.0,1.9067,0.0009,402.69,0.38,111.0,43.9,138.12,28.36,24.61,36.32,0.04,-272.73,-272.74,-54,559,-936,23.0,3.4,-23.2,23.0,3.5,-22.8,5.73,2.33,-26.5,26.3
2012-04-19 00:16:00,0.0,1.9061,0.0009,402.66,0.35,100.6,35.3,138.13,28.34,24.62,36.32,0.04,-272.73,-272.74,-54,559,-936,23.0,3.4,-23.1,23.0,3.5,-22.7,5.73,2.34,-26.6,26.1
2012-04-19 00:17:00,0.0,1.9057,0.0012,402.50,0.35,95.1,32.8,138.13,28.33,24.62,36.32,0.04,-272.74,-272.74,-54,559,-936,22.9,3.4,-23.2,22.9,3.5,-22.7,5.73,2.39,-26.7,25.9
2012-04-19 00:18:00,0.0,1.9056,0.0012,402.40,0.37,78.2,40.9,138.14,28.31,24.61,36.33,0.04,-272.73,-272.74,-54,559,-936,22.9,3.4,-23.2,22.9,3.5,-22.8,5.73,2.43,-26.8,25.9
2012-04-19 00:19:00,0.0,1.9050,0.0010,402.45,0.28,69.8,35.6,138.14,28.29,24.61,36.33,0.04,-272.73,-272.74,-54,558,-936,22.9,3.4,-23.2,22.8,3.5,-22.8,5.73,2.44,-26.9,25.8
2012-04-19 00:20:00,0.0,1.9048,0.0011,402.39,0.32,71.0,42.2,138.14,28.27,24.61,36.32,0.04,-272.73,-272.73,-54,559,-937,22.8,3.4,-23.2,22.8,3.5,-22.8,5.73,2.44,-27.0,25.6
2012-04-19 00:21:00,0.0,1.9040,0.0011,402.49,0.31,61.0,35.6,138.15,28.25,24.62,36.32,0.04,-272.74,-272.74,-54,558,-936,22.8,3.4,-23.2,22.7,3.5,-22.8,5.73,2.41,-27.1,25.9
2012-04-19 00:22:00,0.0,1.9048,0.0009,402.39,0.32,59.6,38.5,138.14,28.24,24.61,36.31,0.04,-272.74,-272.74,-54,558,-936,22.8,3.4,-23.2,22.7,3.5,-22.8,5.73,2.28,-27.1,26.4
2012-04-19 00:23:00,0.0,1.9041,0.0010,402.36,0.39,71.0,34.2,138.14,28.22,24.62,36.32,0.04,-272.74,-272.73,-54,557,-936,22.8,3.4,-23.2,22.7,3.5,-22.8,5.73,2.48,-27.0,26.7
2012-04-19 00:24:00,0.0,1.9044,0.0011,402.32,0.39,71.5,35.5,138.14,28.21,24.61,36.32,0.04,-272.73,-272.73,-54,558,-936,22.8,3.4,-23.3,22.8,3.5,-22.9,5.73,2.30,-26.9,26.9
2012-04-19 00:25:00,0.0,1.9047,0.0008,402.40,0.31,90.6,36.3,138.13,28.21,24.61,36.32,0.04,-272.74,-272.74,-54,558,-935,22.8,3.4,-23.2,22.8,3.5,-22.9,5.73,2.49,-26.9,27.1
2012-04-19 00:26:00,0.0,1.9044,0.0011,402.29,0.32,88.7,35.6,138.13,28.21,24.61,36.32,0.04,-272.73,-272.74,-54,558,-936,22.9,3.4,-23.2,22.8,3.5,-22.8,5.73,2.29,-26.8,27.2
2012-04-19 00:27:00,0.0,1.9046,0.0009,402.47,0.36,85.7,36.6,138.13,28.21,24.62,36.31,0.04,-272.74,-272.73,-54,558,-936,22.9,3.4,-23.2,22.9,3.5,-22.8,5.73,2.45,-26.7,27.3
2012-04-19 00:28:00,0.0,1.9044,0.0010,402.41,0.39,100.6,40.0,138.12,28.22,24.62,36.32,0.04,-272.73,-272.73,-54,558,-936,22.9,3.4,-23.2,22.9,3.5,-22.8,5.73,2.41,-26.6,27.4
2012-04-19 00:29:00,0.0,1.9052,0.0010,402.39,0.31,107.6,38.4,138.12,28.23,24.62,36.32,0.04,-272.74,-272.74,-54,557,-935,22.9,3.4,-23.2,22.9,3.5,-22.8,5.73,2.30,-26.5,27.5
2012-04-19 00:30:00,0.0,1.9054,0.0009,402.48,0.35,120.2,38.6,138.12,28.24,24.62,36.32,0.04,-272.74,-272.74,-54,558,-936,22.9,3.4,-23.1,22.9,3.5,-22.7,5.73,2.47,-26.5,27.6
2012-04-19 00:31:00,0.0,1.9054,0.0011,402.42,0.42,118.4,36.1,138.11,28.25,24.62,36.33,0.04,-272.73,-272.73,-54,558,-935,22.9,3.4,-23.1,23.0,3.5,-22.7,5.73,2.37,-26.4,27.7
2012-04-19 00:32:00,0.0,1.9063,0.0011,402.54,0.36,120.7,47.1,138.11,28.27,24.61,36.32,0.04,-272.74,-272.74,-54,558,-936,23.0,3.4,-23.1,23.0,3.5,-22.7,5.73,2.32,-26.3,27.7
2012-04-19 00:33:00,0.0,1.9063,0.0014,402.45,0.29,128.7,40.5,138.11,28.28,24.62,36.33,0.04,-272.74,-272.74,-54,558,-935,23.0,3.4,-23.1,23.0,3.5,-22.6,5.73,2.48,-26.2,27.8
2012-04-19 00:34:00,0.0,1.9062,0.0010,402.48,0.40,135.2,40.6,138.11,28.30,24.62,36.32,0.04,-272.74,-272.74,-54,558,-936,23.0,3.4,-23.1,23.1,3.5,-22.7,5.73,2.35,-26.2,27.8
2012-04-19 00:35:00,0.0,1.9069,0.0009,402.58,0.33,126.2,43.0,138.11,28.31,24.62,36.32,0.04,-272.74,-272.73,-53,558,-936,23.0,3.4,-23.1,23.1,3.5,-22.7,5.73,2.34,-26.1,27.9
2012-04-19 00:36:00,0.0,1.9070,0.0010,402.57,0.38,135.0,38.2,138.10,28.33,24.62,36.33,0.04,-272.74,-272.74,-54,558,-936,23.1,3.4,-23.1,23.1,3.5,-22.7,5.73,2.47,-26.1,27.9
2012-04-19 00:37:00,0.0,1.9073,0.0011,402.53,0.33,134.1,42.8,138.10,28.35,24.61,36.33,0.04,-272.74,-272.74,-54,558,-936,23.1,3.4,-23.1,23.1,3.5,-22.6,5.73,2.37,-26.0,28.0
2012-04-19 00:38:00,0.0,1.9075,0.0011,402.44,0.33,137.9,41.4,138.10,28.36,24.61,36.33,0.04,-272.74,-272.74,-54,559,-936,23.1,3.4,-23.1,23.2,3.5,-22.6,5.73,2.32,-25.9,28.1
2012-04-19 00:39:00,0.0,1.9074,0.0011,402.49,0.36,146.5,37.6,138.10,28.38,24.62,36.33,0.04,-272.73,-272.74,-54,559,-936,23.2,3.4,-23.0,23.2,3.5,-22.7,5.73,2.49,-25.9,27.4
2012-04-19 00:40:00,0.0,1.9076,0.0009,402.57,0.39,141.0,36.8,138.11,28.39,24.61,36.33,0.04,-272.74,-272.74,-54,559,-936,23.2,3.4,-23.1,23.2,3.5,-22.7,5.73,2.28,-26.0,26.9
2012-04-19 00:41:00,0.0,1.9075,0.0011,402.59,0.34,137.2,36.3,138.11,28.39,24.62,36.33,0.04,-272.73,-272.74,-54,559,-936,23.2,3.4,-23.1,23.2,3.5,-22.6,5.73,2.43,-26.1,26.7
2012-04-19 00:42:00,0.0,1.9069,0.0010,402.67,0.36,123.8,43.1,138.12,28.39,24.62,36.32,0.04,-272.73,-272.74,-54,559,-936,23.1,3.4,-23.0,23.1,3.5,-22.6,5.73,2.48,-26.2,26.5
2012-04-19 00:43:00,0.0,1.9072,0.0013,402.69,0.31,116.2,40.5,138.12,28.39,24.62,36.33,0.04,-272.74,-272.74,-54,559,-936,23.1,3.4,-23.0,23.1,3.5,-22.7,5.73,2.40,-26.3,26.2
2012-04-19 00:44:00,0.0,1.9062,0.0010,402.58,0.31,107.8,38.2,138.13,28.38,24.62,36.32,0.04,-272.73,-272.74,-54,559,-936,23.1,3.4,-23.1,23.0,3.5,-22.7,5.73,2.34,-26.4,26.0
2012-04-19 00:45:00,0.0,1.9060,0.0010,402.57,0.29,100.0,32.3,138.13,28.37,24.62,36.32,0.04,-272.73,-272.74,-54,559,-936,23.0,3.4,-23.1,23.0,3.5,-22.7,5.73,2.33,-26.5,26.0
2012-04-19 00:46:00,0.0,1.9058,0.0010,402.64,0.32,101.6,42.2,138.13,28.36,24.62,36.32,0.04,-272.74,-272.74,-54,560,-937,23.0,3.4,-23.1,22.9,3.5,-22.7,5.73,2.37,-26.6,25.8
2012-04-19 00:47:00,0.0,1.9050,0.0009,402.48,0.34,89.5,35.0,138.14,28.34,24.62,36.32,0.04,-272.74,-272.74,-54,559,-936,22.9,3.4,-23.1,22.9,3.5,-22.7,5.73,2.42,-26.7,25.8
2012-04-19 00:48:00,0.0,1.9052,0.0009,402.42,0.32,71.8,40.1,138.14,28.32,24.62,36.33,0.04,-272.74,-272.74,-54,559,-936,22.9,3.4,-23.1,22.8,3.5,-22.8,5.73,2.44,-26.8,25.7
2012-04-19 00:49:00,0.0,1.9049,0.0010,402.43,0.34,74.0,37.4,138.14,28.30,24.62,36.32,0.04,-272.74,-272.74,-54,559,-936,22.9,3.4,-23.1,22.8,3.6,-22.7,5.73,2.45,-26.9,25.6
2012-04-19 00:50:00,0.0,1.9048,0.0011,402.39,0.34,60.1,31.3,138.15,28.28,24.61,36.31,0.04,-272.74,-272.74,-54,558,-936,22.9,3.4,-23.1,22.8,3.6,-22.7,5.73,2.39,-26.9,26.2
2012-04-19 00:51:00,0.0,1.9049,0.0009,402.37,0.35,68.7,38.4,138.14,28.26,24.61,36.32,0.04,-272.74,-272.74,-55,558,-936,22.9,3.4,-23.1,22.8,3.6,-22.7,5.73,2.29,-26.9,26.6
2012-04-19 00:52:00,0.0,1.9046,0.0009,402.47,0.34,75.8,41.4,138.14,28.25,24.62,36.31,0.04,-272.73,-272.74,-54,558,-936,22.9,3.4,-23.1,22.8,3.6,-22.7,5.73,2.50,-26.8,26.9
2012-04-19 00:53:00,0.0,1.9046,0.0010,402.44,0.33,87.1,42.3,138.13,28.25,24.61,36.31,0.04,-272.74,-272.74,-54,558,-936,22.9,3.4,-23.0,22.8,3.6,-22.6,5.73,2.30,-26.7,27.1
2012-04-19 00:54:00,0.0,1.9050,0.0011,402.40,0.35,92.3,40.0,138.13,28.25,24.61,36.32,0.04,-272.73,-272.74,-54,558,-936,22.9,3.4,-23.0,22.9,3.6,-22.5,5.73,2.43,-26.6,27.2
2012-04-19 00:55:00,0.0,1.9049,0.0010,402.47,0.33,104.4,43.6,138.13,28.25,24.62,36.32,0.04,-272.74,-272.74,-54,558,-936,22.9,3.4,-23.0,22.9,3.6,-22.5,5.73,2.41,-26.5,27.3
2012-04-19 00:56:00,0.0,1.9053,0.0010,402.40,0.34,100.5,39.5,138.12,28.26,24.61,36.32,0.04,-272.74,-272.73,-54,558,-936,23.0,3.5,-22.9,22.9,3.6,-22.5,5.73,2.30,-26.4,27.4
2012-04-19 00:57:00,0.0,1.9056,0.0009,402.46,0.29,98.5,38.8,138.12,28.27,24.61,36.32,0.04,-272.73,-272.74,-54,558,-936,23.0,3.5,-22.9,23.0,3.6,-22.5,5.73,2.48,-26.4,27.5
2012-04-19 00:58:00,0.0,1.9054,0.0008,402.50,0.37,128.2,44.6,138.12,28.28,24.62,36.32,0.04,-272.73,-272.74,-54,558,-936,23.0,3.4,-22.9,23.0,3.6,-22.5,5.73,2.36,-26.3,27.6
2012-04-19 00:59:00,0.0,1.9059,0.0010,402.38,0.32,116.5,34.2,138.11,28.29,24.62,36.33,0.04,-272.74,-272.74,-54,558,-936,23.1,3.4,-22.9,23.0,3.6,-22.6,5.73,2.33,-26.2,27.7
2012-04-19 01:00:00,0.0,1.9065,0.0010,402.51,0.31,126.2,41.8,138.11,28.30,24.61,36.32,0.04,-272.74,-272.74,-54,558,-936,23.1,3.5,-22.9,23.1,3.6,-22.4,5.73,2.48,-26.1,27.8
2012-04-19 01:01:00,0.0,1.9065,0.0009,402.58,0.34,126.9,40.3,138.11,28.32,24.61,36.32,0.04,-272.74,-272.74,-54,558,-936,23.1,3.5,-22.8,23.1,3.6,-22.4,5.73,2.35,-26.1,27.8
2012-04-19 01:02:00,0.0,1.9068,0.0012,402.52,0.36,135.3,26.9,138.11,28.33,24.62,36.33,0.04,-272.73,-272.74,-54,558,-936,23.1,3.5,-22.9,23.1,3.6,-22.4,5.73,2.34,-26.0,27.9
2012-04-19 01:03:00,0.0,1.9068,0.0011,402.51,0.41,130.9,39.9,138.11,28.35,24.62,36.33,0.04,-272.74,-272.74,-54,559,-936,23.1,3.4,-22.9,23.2,3.6,-22.4,5.73,2.47,-26.0,28.0
2012-04-19 01:04:00,0.0,1.9070,0.0011,402.53,0.35,140.2,39.5,138.10,28.36,24.62,36.32,0.04,-272.74,-272.74,-54,559,-936,23.2,3.4,-22.8,23.2,3.6,-22.3,5.73,2.35,-25.9,28.0
2012-04-19 01:05:00,0.0,1.9075,0.0012,402.50,0.33,143.2,48.2,138.10,28.38,24.61,36.32,0.04,-272.74,-272.73,-54,559,-936,23.2,3.4,-22.8,23.2,3.5,-22.5,5.73,2.32,-25.9,28.1
2012-04-19 01:06:00,0.0,1.9073,0.0010,402.39,0.36,150.7,41.7,138.10,28.39,24.62,36.33,0.04,-272.74,-272.74,-53,559,-936,23.2,3.4,-22.9,23.3,3.5,-22.4,5.73,2.47,-25.8,28.0
2012-04-19 01:07:00,0.0,1.9079,0.0011,402.46,0.32,139.3,34.1,138.10,28.41,24.61,36.33,0.04,-272.73,-272.73,-54,559,-936,23.3,3.4,-22.9,23.3,3.5,-22.5,5.73,2.31,-25.7,27.4
2012-04-19 01:08:00,0.0,1.9077,0.0011,402.66,0.35,157.1,48.0,138.11,28.42,24.62,36.32,0.04,-272.73,-272.73,-54,560,-936,23.3,3.4,-23.0,23.3,3.5,-22.5,5.73,2.50,-25.8,27.0
2012-04-19 01:09:00,0.0,1.9074,0.0011,402.57,0.34,137.0,40.7,138.11,28.42,24.62,36.33,0.04,-272.73,-272.74,-54,560,-937,23.2,3.4,-22.9,23.2,3.5,-22.5,5.73,2.34,-25.9,26.5
2012-04-19 01:10:00,0.0,1.9075,0.0010,402.74,0.37,126.6,37.9,138.12,28.42,24.61,36.32,0.04,-272.74,-272.74,-54,559,-936,23.2,3.4,-22.9,23.2,3.6,-22.5,5.73,2.32,-26.0,26.4
2012-04-19 01:11:00,0.0,1.9071,0.0014,402.61,0.33,124.5,37.5,138.12,28.42,24.62,36.32,0.04,-272.74,-272.74,-54,559,-937,23.2,3.4,-22.9,23.1,3.6,-22.5,5.73,2.40,-26.1,26.2
2012-04-19 01:12:00,0.0,1.9064,0.0010,402.57,0.39,114.5,43.4,138.13,28.41,24.62,36.32,0.04,-272.73,-272.74,-55,559,-937,23.1,3.4,-22.9,23.1,3.6,-22.5,5.73,2.46,-26.2,25.9
2012-04-19 01:13:00,0.0,1.9060,0.0011,402.49,0.37,100.4,38.7,138.13,28.40,24.62,36.32,0.04,-272.74,-272.74,-55,559,-937,23.1,3.4,-23.0,23.1,3.6,-22.5,5.73,2.45,-26.3,25.8
2012-04-19 01:14:00,0.0,1.9058,0.0010,402.51,0.37,94.3,44.0,138.13,28.38,24.61,36.32,0.04,-272.74,-272.74,-55,560,-937,23.1,3.4,-22.9,23.0,3.6,-22.6,5.73,2.40,-26.4,25.7
2012-04-19 01:15:00,0.0,1.9053,0.0011,402.44,0.40,91.6,39.8,138.14,28.36,24.62,36.32,0.04,-272.74,-272.74,-54,559,-937,23.0,3.4,-22.9,23.0,3.6,-22.6,5.73,2.35,-26.5,25.6
2012-04-19 01:16:00,0.0,1.9054,0.0011,402.49,0.34,94.4,35.6,138.14,28.35,24.62,36.32,0.04,-272.74,-272.74,-55,559,-937,23.0,3.5,-22.8,22.9,3.6,-22.4,5.73,2.34,-26.6,25.6
2012-04-19 01:17:00,0.0,1.9049,0.0011,402.37,0.32,86.4,38.4,138.14,28.33,24.62,36.32,0.04,-272.74,-272.74,-54,559,-937,23.0,3.5,-22.9,22.9,3.6,-22.5,5.73,2.35,-26.7,25.6
2012-04-19 01:18:00,0.0,1.9048,0.0009,402.34,0.28,69.9,33.0,138.14,28.31,24.62,36.32,0.04,-272.74,-272.74,-54,559,-936,22.9,3.5,-22.9,22.9,3.6,-22.5,5.73,2.45,-26.7,26.1
2012-04-19 01:19:00,0.0,1.9044,0.0008,402.39,0.34,81.2,34.7,138.14,28.29,24.62,36.32,0.04,-272.73,-272.74,-55,558,-936,22.9,3.5,-22.8,22.9,3.6,-22.5,5.73,2.43,-26.7,26.6
2012-04-19 01:20:00,0.0,1.9047,0.0009,402.30,0.33,82.6,43.1,138.14,28.29,24.61,36.32,0.04,-272.74,-272.74,-54,559,-936,22.9,3.5,-22.8,22.9,3.6,-22.5,5.73,2.33,-26.6,26.9
2012-04-19 01:21:00,0.0,1.9047,0.0009,402.46,0.40,87.4,37.8,138.13,28.28,24.61,36.32,0.04,-272.74,-272.74,-55,558,-936,23.0,3.5,-22.8,22.9,3.6,-22.4,5.73,2.41,-26.5,27.1
2012-04-19 01:22:00,0.0,1.9052,0.0010,402.43,0.34,107.1,39.1,138.13,28.28,24.61,36.32,0.04,-272.73,-272.74,-54,559,-936,23.0,3.5,-22.8,23.0,3.6,-22.4,5.73,2.42,-26.4,27.3
2012-04-19 01:23:00,0.0,1.9052,0.0011,402.45,0.32,108.5,44.5,138.12,28.29,24.62,36.32,0.04,-272.74,-272.74,-55,559,-936,23.0,3.5,-22.8,23.0,3.6,-22.4,5.73,2.30,-26.3,27.4
2012-04-19 01:24:00,0.0,1.9053,0.0012,402.39,0.32,114.3,37.7,138.12,28.30,24.61,36.32,0.04,-272.74,-272.74,-54,559,-936,23.1,3.5,-22.7,23.0,3.6,-22.4,5.73,2.48,-26.3,27.5
2012-04-19 01:25:00,0.0,1.9055,0.0010,402.35,0.30,128.8,43.7,138.12,28.31,24.61,36.33,0.04,-272.74,-272.74,-55,558,-936,23.1,3.5,-22.8,23.1,3.6,-22.4,5.73,2.35,-26.2,27.6
2012-04-19 01:26:00,0.0,1.9059,0.0011,402.51,0.35,117.1,42.2,138.11,28.32,24.61,36.33,0.04,-272.74,-272.74,-54,558,-936,23.1,3.5,-22.7,23.1,3.6,-22.3,5.73,2.34,-26.1,27.7
2012-04-19 01:27:00,0.0,1.9063,0.0010,402.43,0.39,125.3,44.6,138.11,28.33,24.61,36.33,0.04,-272.74,-272.74,-54,559,-936,23.1,3.5,-22.7,23.1,3.6,-22.3,5.73,2.48,-26.0,27.8
2012-04-19 01:28:00,0.0,1.9066,0.0011,402.52,0.33,139.9,48.5,138.11,28.35,24.61,36.32,0.04,-272.74,-272.74,-54,559,-936,23.1,3.5,-22.8,23.1,3.6,-22.3,5.73,2.34,-25.9,27.9
2012-04-19 01:29:00,0.0,1.9068,0.0009,402.53,0.31,131.8,44.7,138.11,28.36,24.62,36.33,0.04,-272.73,-272.74,-54,559,-936,23.2,3.5,-22.7,23.2,3.6,-22.3,5.73,2.34,-25.9,27.9
2012-04-19 01:30:00,0.0,1.9072,0.0009,402.54,0.35,143.9,38.0,138.11,28.38,24.62,36.33,0.04,-272.74,-272.74,-54,559,-936,23.2,3.5,-22.7,23.2,3.6,-22.4,5.73,2.48,-25.8,28.0
2012-04-19 01:31:00,0.0,1.9071,0.0009,402.51,0.34,149.0,39.7,138.10,28.39,24.62,36.33,0.04,-272.74,-272.73,-54,559,-936,23.2,3.5,-22.7,23.2,3.6,-22.3,5.73,2.35,-25.8,28.0
2012-04-19 01:32:00,0.0,1.9075,0.0012,402.43,0.36,151.2,44.2,138.10,28.41,24.61,36.33,0.04,-272.74,-272.73,-54,559,-936,23.3,3.4,-22.8,23.3,3.6,-22.4,5.73,2.32,-25.7,28.1
2012-04-19 01:33:00,0.0,1.9077,0.0012,402.50,0.35,150.5,37.5,138.10,28.43,24.61,36.33,0.04,-272.74,-272.74,-54,559,-936,23.3,3.5,-22.7,23.3,3.6,-22.2,5.73,2.47,-25.6,28.1
2012-04-19 01:34:00,0.0,1.9076,0.0011,402.44,0.40,152.8,44.4,138.10,28.44,24.61,36.33,0.04,-272.73,-272.73,-54,559,-936,23.3,3.5,-22.6,23.3,3.6,-22.1,5.73,2.32,-25.6,27.5
2012-04-19 01:35:00,0.0,1.9076,0.0011,402.67,0.39,155.7,41.2,138.10,28.46,24.62,36.32,0.04,-272.73,-272.73,-54,559,-936,23.3,3.5,-22.7,23.3,3.6,-22.2,5.73,2.48,-25.7,27.0
2012-04-19 01:36:00,0.0,1.9076,0.0013,402.56,0.34,140.0,43.3,138.11,28.46,24.62,36.33,0.04,-272.73,-272.74,-54,560,-936,23.3,3.5,-22.6,23.3,3.6,-22.2,5.73,2.31,-25.8,26.7
2012-04-19 01:37:00,0.0,1.9073,0.0010,402.56,0.40,138.6,42.9,138.11,28.46,24.62,36.33,0.04,-272.74,-272.74,-54,560,-937,23.3,3.5,-22.6,23.2,3.6,-22.1,5.73,2.33,-25.9,26.6
2012-04-19 01:38:00,0.0,1.9069,0.0009,402.56,0.36,129.3,42.7,138.12,28.46,24.62,36.33,0.04,-272.74,-272.74,-54,560,-937,23.3,3.5,-22.5,23.2,3.6,-22.1,5.73,2.44,-26.0,26.2
2012-04-19 01:39:00,0.0,1.9066,0.0011,402.71,0.34,119.2,36.8,138.12,28.45,24.62,36.32,0.04,-272.74,-272.74,-54,560,-937,23.2,3.5,-22.6,23.2,3.7,-22.1,5.73,2.47,-26.1,26.1
2012-04-19 01:40:00,0.0,1.9066,0.0010,402.56,0.32,117.3,38.6,138.13,28.44,24.61,36.33,0.04,-272.74,-272.74,-54,560,-937,23.2,3.5,-22.5,23.1,3.7,-22.1,5.73,2.42,-26.2,26.0
2012-04-19 01:41:00,0.0,1.9060,0.0010,402.55,0.35,107.1,45.5,138.13,28.42,24.62,36.33,0.04,-272.74,-272.74,-54,560,-937,23.2,3.5,-22.5,23.1,3.7,-22.1,5.73,2.36,-26.3,25.8
2012-04-19 01:42:00,0.0,1.9051,0.0010,402.44,0.38,98.3,40.5,138.13,28.41,24.62,36.33,0.04,-272.73,-272.73,-55,560,-937,23.1,3.6,-22.5,23.0,3.7,-22.1,5.73,2.33,-26.4,25.7
2012-04-19 01:43:00,0.0,1.9052,0.0010,402.53,0.39,105.2,38.0,138.14,28.39,24.62,36.32,0.04,-272.74,-272.73,-55,560,-937,23.1,3.6,-22.5,23.0,3.7,-22.1,5.73,2.34,-26.4,25.6
2012-04-19 01:44:00,0.0,1.9051,0.0010,402.42,0.36,86.6,38.6,138.14,28.37,24.62,36.33,0.04,-272.74,-272.74,-55,559,-937,23.1,3.6,-22.5,22.9,3.7,-22.1,5.73,2.39,-26.5,25.5
2012-04-19 01:45:00,0.0,1.9047,0.0009,402.45,0.31,83.4,33.8,138.14,28.35,24.62,36.32,0.04,-272.74,-272.73,-55,559,-937,23.0,3.6,-22.5,22.9,3.7,-22.1,5.73,2.46,-26.6,25.8
2012-04-19 01:46:00,0.0,1.9046,0.0012,402.33,0.30,80.6,41.1,138.14,28.33,24.62,36.32,0.04,-272.74,-272.74,-54,559,-936,23.0,3.6,-22.5,22.9,3.7,-22.2,5.73,2.44,-26.5,26.4
2012-04-19 01:47:00,0.0,1.9046,0.0011,402.44,0.34,86.0,39.3,138.14,28.32,24.61,36.32,0.04,-272.74,-272.74,-54,559,-936,23.0,3.6,-22.5,22.9,3.7,-22.1,5.73,2.30,-26.5,26.7
2012-04-19 01:48:00,0.0,1.9047,0.0011,402.34,0.31,102.1,40.8,138.13,28.32,24.62,36.32,0.04,-272.74,-272.74,-55,559,-936,23.0,3.6,-22.4,23.0,3.7,-22.1,5.73,2.47,-26.4,27.0
2012-04-19 01:49:00,0.0,1.9051,0.0010,402.42,0.31,99.8,35.8,138.13,28.32,24.61,36.32,0.04,-272.74,-272.73,-54,558,-936,23.1,3.6,-22.5,23.0,3.7,-22.1,5.73,2.35,-26.3,27.2
2012-04-19 01:50:00,0.0,1.9051,0.0010,402.28,0.33,121.6,36.2,138.12,28.32,24.62,36.33,0.04,-272.73,-272.74,-55,559,-936,23.1,3.6,-22.5,23.0,3.7,-22.1,5.73,2.36,-26.2,27.4
2012-04-19 01:51:00,0.0,1.9053,0.0009,402.44,0.38,117.9,41.4,138.12,28.33,24.62,36.32,0.04,-272.74,-272.75,-54,559,-936,23.1,3.6,-22.4,23.1,3.7,-21.9,5.73,2.47,-26.1,27.5
2012-04-19 01:52:00,0.0,1.9058,0.0009,402.39,0.37,120.0,40.8,138.12,28.34,24.61,36.32,0.04,-272.74,-272.74,-54,559,-936,23.1,3.6,-22.4,23.1,3.7,-22.0,5.73,2.30,-26.0,27.6
2012-04-19 01:53:00,0.0,1.9057,0.0010,402.42,0.38,134.2,46.3,138.11,28.35,24.61,36.33,0.04,-272.74,-272.74,-55,559,-936,23.2,3.6,-22.4,23.2,3.7,-22.0,5.73,2.41,-26.0,27.7
2012-04-19 01:54:00,0.0,1.9060,0.0009,402.48,0.35,130.0,39.0,138.11,28.36,24.61,36.32,0.04,-272.74,-272.74,-54,559,-936,23.2,3.6,-22.4,23.2,3.7,-21.9,5.73,2.44,-25.9,27.8
2012-04-19 01:55:00,0.0,1.9064,0.0012,402.60,0.33,144.5,35.2,138.11,28.38,24.61,36.32,0.04,-272.74,-272.74,-54,559,-936,23.2,3.6,-22.2,23.2,3.8,-21.8,5.73,2.29,-25.8,27.9
2012-04-19 01:56:00,0.0,1.9065,0.0010,402.62,0.33,149.6,36.3,138.11,28.39,24.61,36.32,0.04,-272.73,-272.73,-54,559,-936,23.3,3.6,-22.4,23.2,3.7,-21.9,5.73,2.42,-25.7,28.0
2012-04-19 01:57:00,0.0,1.9072,0.0009,402.62,0.32,145.1,43.6,138.10,28.41,24.61,36.32,0.04,-272.74,-272.74,-54,559,-936,23.3,3.6,-22.3,23.3,3.7,-21.9,5.73,2.44,-25.7,28.0
2012-04-19 01:58:00,0.0,1.9071,0.0009,402.52,0.34,150.3,43.3,138.10,28.43,24.62,36.33,0.04,-272.74,-272.74,-54,559,-936,23.3,3.6,-22.4,23.3,3.7,-21.9,5.73,2.30,-25.6,28.1
2012-04-19 01:59:00,0.0,1.9075,0.0013,402.47,0.37,156.8,39.1,138.10,28.44,24.61,36.33,0.04,-272.73,-272.73,-54,559,-936,23.3,3.6,-22.4,23.3,3.7,-21.9,5.73,2.40,-25.6,28.2
2012-04-19 02:00:00,0.0,1.9075,0.0011,402.55,0.34,160.1,45.2,138.10,28.46,24.61,36.33,0.04,-272.74,-272.74,-54,559,-936,23.4,3.5,-22.4,23.4,3.7,-22.0,5.73,2.45,-25.5,28.1
2012-04-19 02:01:00,0.0,1.9073,0.0012,402.43,0.34,162.4,40.9,138.10,28.47,24.62,36.33,0.04,-272.74,-272.74,-54,559,-936,23.4,3.5,-22.4,23.4,3.7,-22.0,5.73,2.28,-25.5,27.5
2012-04-19 02:02:00,0.0,1.9079,0.0012,402.54,0.38,146.9,39.4,138.11,28.48,24.62,36.33,0.04,-272.73,-272.73,-54,560,-936,23.4,3.5,-22.4,23.3,3.7,-22.0,5.73,2.45,-25.6,27.0
2012-04-19 02:03:00,0.0,1.9075,0.0009,402.56,0.36,142.5,40.3,138.11,28.49,24.62,36.33,0.04,-272.74,-272.74,-54,560,-937,23.4,3.5,-22.4,23.3,3.7,-22.0,5.73,2.46,-25.6,26.7
2012-04-19 02:04:00,0.0,1.9069,0.0010,402.63,0.38,138.1,40.8,138.12,28.49,24.62,36.33,0.04,-272.74,-272.74,-54,560,-937,23.4,3.5,-22.5,23.3,3.7,-22.1,5.73,2.33,-25.7,26.5
2012-04-19 02:05:00,0.0,1.9066,0.0010,402.59,0.37,147.6,36.6,138.12,28.49,24.62,36.32,0.04,-272.73,-272.74,-54,560,-937,23.3,3.5,-22.5,23.3,3.7,-22.0,5.73,2.32,-25.8,26.4
2012-04-19 02:06:00,0.0,1.9065,0.0011,402.58,0.31,134.2,33.6,138.12,28.48,24.62,36.33,0.04,-272.73,-272.74,-54,560,-937,23.3,3.6,-22.4,23.2,3.7,-22.0,5.73,2.40,-25.9,26.2
2012-04-19 02:07:00,0.0,1.9064,0.0011,402.62,0.37,115.1,37.5,138.13,28.47,24.61,36.33,0.04,-272.74,-272.74,-55,560,-937,23.3,3.6,-22.4,23.2,3.7,-21.9,5.73,2.45,-26.0,26.1
2012-04-19 02:08:00,0.0,1.9061,0.0009,402.54,0.33,118.0,38.6,138.13,28.46,24.62,36.32,0.04,-272.74,-272.74,-55,560,-937,23.2,3.6,-22.4,23.1,3.7,-22.0,5.73,2.45,-26.1,26.0
2012-04-19 02:09:00,0.0,1.9058,0.0008,402.53,0.35,100.7,38.9,138.13,28.44,24.62,36.32,0.04,-272.74,-272.73,-55,560,-937,23.2,3.6,-22.4,23.1,3.7,-22.0,5.73,2.41,-26.2,25.9
2012-04-19 02:10:00,0.0,1.9048,0.0010,402.52,0.29,103.8,37.8,138.14,28.42,24.62,36.32,0.04,-272.74,-272.74,-55,560,-937,23.2,3.6,-22.3,23.1,3.7,-21.9,5.73,2.34,-26.2,25.8
2012-04-19 02:11:00,0.0,1.9052,0.0011,402.49,0.36,94.8,34.4,138.14,28.40,24.61,36.32,0.04,-272.74,-272.74,-55,560,-937,23.1,3.6,-22.4,23.0,3.7,-22.0,5.73,2.32,-26.3,25.7
2012-04-19 02:12:00,0.0,1.9046,0.0010,402.43,0.31,90.0,40.2,138.14,28.38,24.62,36.32,0.04,-272.73,-272.74,-55,560,-937,23.1,3.6,-22.3,23.0,3.8,-22.0,5.73,2.36,-26.4,25.9
2012-04-19 02:13:00,0.0,1.9045,0.0010,402.43,0.32,84.6,38.0,138.14,28.36,24.62,36.32,0.04,-272.74,-272.74,-54,559,-937,23.1,3.7,-22.2,23.0,3.8,-21.9,5.73,2.50,-26.3,26.5
2012-04-19 02:14:00,0.0,1.9044,0.0011,402.41,0.32,94.4,37.9,138.14,28.35,24.62,36.32,0.04,-272.74,-272.74,-55,559,-937,23.1,3.6,-22.3,23.0,3.8,-22.0,5.73,2.32,-26.3,26.9
2012-04-19 02:15:00,0.0,1.9045,0.0009,402.36,0.37,103.3,37.2,138.13,28.35,24.62,36.32,0.04,-272.74,-272.74,-54,559,-936,23.1,3.6,-22.3,23.0,3.7,-22.0,5.73,2.46,-26.2,27.1
2012-04-19 02:16:00,0.0,1.9049,0.0011,402.50,0.32,111.7,38.2,138.13,28.35,24.61,36.32,0.04,-272.73,-272.74,-55,559,-936,23.1,3.6,-22.4,23.1,3.7,-22.0,5.73,2.29,-26.1,27.3
2012-04-19 02:17:00,0.0,1.9047,0.0010,402.34,0.33,126.7,43.5,138.12,28.35,24.62,36.33,0.04,-272.74,-272.74,-54,559,-936,23.2,3.6,-22.3,23.1,3.7,-22.0,5.73,2.49,-26.0,27.5